Wind_Speed
3 3 4 4 3 2 2 2 3 4 5 5 6 7 7 7 7 7 8 8 8 9 9 10 11 10 10 10 11 10 12 12 12 13 13 13 12 12 12 12 11 11 11
3 3 4 4 4 3 2 2 3 4 5 6 6 7 7 8 8 8 8 9 9 9 9 10 10 11 12 12 12 12 12 13 13 13 13 13 13 13 13 13 13 13 12
3 3 4 4 3 3 2 3 3 4 5 5 6 7 8 8 8 9 9 9 9 10 10 10 11 11 12 13 13 13 13 13 14 14 14 14 14 14 14 14 14 15 14
5 3 4 4 4 3 3 3 4 5 5 6 6 7 8 8 9 9 10 10 11 11 11 12 12 13 12 13 14 14 14 14 14 15 16 15 15 15 15 15 15 16 16
6 5 5 4 4 4 4 4 4 5 6 7 7 7 8 9 9 10 11 11 12 12 13 13 14 14 14 14 15 15 15 16 16 16 17 17 17 17 16 17 17 17 17
7 7 6 5 5 5 5 5 6 6 7 8 8 8 8 9 10 11 11 11 12 13 14 14 14 15 15 15 16 16 17 16 17 18 18 18 18 18 18 18 18 18 17
7 7 7 7 6 6 6 6 7 7 8 8 9 9 10 10 11 11 12 12 13 14 14 15 15 15 15 16 16 17 18 18 18 18 18 18 19 19 19 19 19 18 19
8 7 8 8 8 8 7 7 8 8 9 9 10 11 12 12 12 12 13 14 14 15 15 15 16 16 16 17 17 18 18 18 19 19 19 19 19 20 20 19 20 19 19
8 9 9 10 10 11 11 11 10 10 10 11 12 12 12 12 13 14 14 14 15 15 16 17 17 18 18 18 18 18 19 19 19 20 20 21 20 20 21 20 21 21 21
10 11 11 12 12 12 13 13 12 13 13 13 13 13 14 14 15 15 16 16 17 17 18 18 20 20 20 20 20 20 20 20 21 21 21 22 23 22 22 22 22 23 22
12 13 13 14 14 14 14 14 14 14 15 15 15 15 16 16 16 17 17 18 19 19 20 20 21 21 21 21 22 22 22 22 22 23 23 23 23 24 24 24 24 23 23
14 14 14 15 15 15 15 15 15 16 16 17 17 17 17 17 18 19 19 19 20 21 21 21 21 22 22 22 23 24 24 24 24 24 24 24 24 25 25 25 25 25 24
15 15 16 16 16 16 17 17 17 17 17 18 18 19 19 20 20 21 21 21 21 21 21 22 23 23 23 23 24 24 25 26 26 25 25 25 25 25 25 25 25 25 25
15 15 17 16 16 16 16 17 17 18 18 19 19 20 21 22 22 22 22 22 22 23 23 23 24 24 24 24 25 25 25 25 25 25 25 25 25 25 25 25 25 25 25
15 16 16 16 17 17 17 17 18 18 19 20 20 21 22 22 22 23 23 23 23 23 24 24 24 25 26 25 25 25 25 24 26 26 26 26 27 27 26 27 26 26 26
17 16 17 17 18 17 18 18 18 19 20 20 21 22 22 23 23 23 23 23 23 23 23 23 24 25 25 25 25 24 25 25 26 27 28 28 27 28 27 28 28 28 28
18 18 19 19 18 18 18 19 19 20 21 21 22 22 23 23 23 24 24 24 23 23 22 23 24 25 25 25 24 24 24 25 26 27 28 29 29 28 28 29 29 30 30
20 20 20 19 19 19 19 20 20 21 21 22 22 22 22 23 23 24 24 24 24 24 24 24 25 26 26 25 25 25 25 26 26 27 28 29 29 29 29 29 29 30 31
21 21 20 20 20 21 21 21 22 22 22 23 23 23 23 23 24 24 24 24 24 24 25 25 26 26 26 26 26 26 26 27 27 27 27 28 28 29 30 30 30 31 32
21 20 20 21 20 21 21 22 22 22 23 23 23 24 24 24 24 24 25 24 24 25 25 26 25 25 26 26 26 26 27 27 28 27 27 28 28 28 29 30 30 32 33
21 20 21 21 22 22 22 22 22 23 24 24 24 24 25 25 26 26 25 25 26 26 26 26 26 26 26 26 26 26 27 27 27 28 28 28 28 27 28 28 31 31 32
21 22 22 22 22 22 23 23 23 24 24 25 25 25 25 26 26 26 26 26 26 27 27 27 26 26 27 27 27 27 27 27 28 28 28 28 28 28 28 28 29 31 31
23 23 23 22 23 23 24 24 24 25 24 24 24 25 25 26 27 26 26 26 26 27 27 27 27 26 26 28 28 28 28 28 28 28 28 27 28 28 28 29 29 29 30
23 23 23 23 23 24 24 24 25 25 25 25 25 26 26 27 27 27 27 26 27 27 27 27 27 27 27 28 28 29 29 29 29 29 29 28 27 28 28 28 28 28 28
24 24 24 24 24 23 23 23 24 24 24 25 25 26 27 27 27 27 27 27 27 27 26 26 26 26 26 27 28 28 28 28 28 28 28 27 26 26 26 25 26 27 28
25 25 25 24 24 24 23 23 24 24 24 25 26 26 27 27 26 26 26 26 26 26 26 26 26 25 25 26 27 28 27 27 26 27 27 26 25 25 25 25 27 28 29
Wind_Direction
25 18 7 1 355 338 314 292 257 236 227 229 233 239 242 246 249 251 252 251 253 251 246 245 245 240 246 246 242 239 239 242 243 242 244 247 249 251 253 251 250 250 249
15 19 9 5 358 345 325 293 255 238 232 235 240 244 247 250 254 253 254 254 256 258 254 253 248 247 247 247 250 250 247 245 245 245 245 247 248 250 251 251 250 250 253
345 356 353 0 356 347 324 296 270 250 245 246 249 250 251 253 254 254 252 254 255 255 255 254 252 252 253 254 253 253 250 249 249 247 246 247 246 248 249 249 252 251 252
337 343 346 346 341 330 320 303 284 267 259 255 255 254 255 254 256 254 252 253 255 256 258 257 253 253 255 254 251 253 252 250 251 249 247 247 247 249 251 251 252 253 253
329 326 327 329 326 320 313 298 286 275 268 265 262 257 255 254 256 255 255 256 258 258 260 258 258 258 259 258 256 257 257 255 254 252 250 249 248 249 252 253 255 255 255
325 320 314 313 316 308 308 301 289 281 275 269 265 260 258 257 259 259 259 260 262 261 261 262 262 262 264 264 262 260 261 260 259 257 254 252 250 250 252 254 255 255 255
319 314 310 309 309 303 301 300 291 285 282 272 264 262 261 259 261 261 261 263 264 264 263 263 262 262 264 265 263 262 261 261 260 258 256 255 254 252 253 253 254 254 254
319 313 306 307 306 302 295 296 292 286 278 273 269 268 264 263 264 262 261 262 264 265 266 266 265 263 264 263 263 263 262 261 261 259 258 258 258 256 254 252 252 253 253
318 314 308 305 303 300 298 296 291 289 285 279 273 273 272 268 268 266 266 265 267 268 268 268 269 268 265 263 263 263 261 261 261 259 258 258 258 259 259 256 254 252 254
310 308 306 303 300 300 298 296 295 291 289 284 277 275 274 273 272 272 271 271 272 271 270 270 269 267 266 265 263 263 262 261 260 259 259 259 259 261 261 260 258 254 253
304 304 301 297 295 295 295 294 292 291 290 287 281 277 276 276 274 274 273 274 274 272 269 270 271 267 266 266 263 262 260 259 259 258 258 258 259 259 259 260 259 255 253
302 301 300 297 294 293 292 291 290 289 288 286 284 283 280 278 275 276 276 275 275 274 271 271 271 268 267 267 265 264 262 259 258 257 257 258 259 258 258 259 258 257 257
300 300 300 299 296 295 294 291 287 287 287 285 283 283 282 282 282 280 277 277 276 275 274 272 271 270 268 267 265 264 263 260 258 258 258 257 258 258 257 257 257 258 258
301 303 302 300 297 295 295 294 291 289 288 286 285 284 284 284 284 283 282 279 279 276 274 274 273 272 271 269 266 265 264 261 258 257 257 258 258 257 258 258 257 257 257
302 302 302 299 297 296 296 294 292 292 291 288 286 286 285 284 284 283 281 281 280 278 275 275 276 276 274 272 270 268 265 263 259 258 258 259 259 258 257 258 258 257 257
303 301 298 298 298 298 297 295 293 293 292 289 287 287 284 284 283 282 281 281 281 280 277 276 276 276 275 275 272 268 265 264 263 262 260 260 259 259 258 259 259 259 259
303 300 298 298 299 297 296 296 295 293 293 292 291 288 286 286 285 284 282 282 280 279 278 277 277 276 276 275 273 270 268 267 266 264 262 261 259 258 258 259 258 258 258
300 300 298 298 298 296 295 296 295 294 294 294 293 291 289 287 287 285 284 282 280 279 279 278 278 277 276 274 273 272 270 270 269 267 265 263 261 261 260 258 257 256 256
300 299 299 299 298 296 295 295 295 294 294 294 293 292 290 288 287 286 284 283 281 280 279 279 279 277 276 274 273 271 271 271 271 270 268 266 264 262 261 258 257 257 256
301 300 299 298 298 297 298 297 296 295 295 294 293 292 291 289 287 286 285 284 283 282 281 280 281 278 275 274 273 272 272 272 271 270 270 269 267 266 264 261 258 258 259
302 299 299 298 298 297 298 297 296 296 295 294 293 291 291 290 288 287 285 284 283 283 282 281 280 277 275 274 272 272 273 273 272 272 271 270 269 268 266 263 260 258 258
301 299 299 298 297 297 298 298 298 297 295 294 293 292 291 291 289 287 286 285 286 286 284 283 280 279 275 273 273 272 272 273 273 272 271 270 269 269 267 264 263 260 258
302 299 298 298 298 297 297 297 297 297 296 296 295 295 295 295 292 288 286 287 286 287 286 283 280 280 277 274 275 275 274 274 272 272 271 271 271 271 269 266 264 261 259
300 299 298 298 298 298 299 298 299 298 299 299 297 296 295 294 293 289 287 287 287 286 286 284 282 281 279 277 276 276 275 274 273 272 271 270 269 268 268 267 264 262 260
299 297 296 296 296 297 299 300 300 299 299 300 299 298 297 295 292 290 287 286 287 288 289 285 284 284 281 278 276 275 276 275 273 273 271 269 268 267 268 268 266 264 261
299 297 294 294 294 294 296 298 300 299 299 299 299 299 298 296 294 292 289 286 287 288 288 286 285 284 284 282 279 277 276 275 272 270 269 268 268 268 267 268 268 266 264
Height
5871 5870 5869 5868 5867 5866 5866 5865 5865 5866 5867 5869 5871 5872 5873 5874 5874 5875 5876 5876 5877 5877 5877 5877 5877 5878 5879 5880 5880 5881 5882 5882 5883 5884 5885 5885 5886 5887 5888 5888 5889 5889 5890
5871 5870 5869 5868 5867 5866 5866 5865 5866 5866 5867 5869 5870 5871 5871 5872 5873 5873 5874 5874 5875 5875 5875 5875 5875 5876 5877 5878 5878 5878 5879 5880 5881 5882 5882 5883 5883 5885 5885 5885 5886 5886 5887
5870 5869 5869 5868 5867 5867 5866 5866 5866 5866 5867 5868 5869 5869 5870 5870 5871 5871 5872 5872 5872 5873 5873 5873 5873 5874 5874 5875 5875 5876 5876 5877 5878 5879 5879 5880 5881 5881 5882 5882 5883 5883 5884
5869 5868 5868 5867 5867 5866 5866 5865 5865 5866 5866 5866 5867 5868 5868 5868 5869 5869 5869 5870 5870 5870 5870 5871 5871 5871 5871 5871 5872 5872 5873 5874 5874 5875 5876 5877 5877 5878 5878 5879 5879 5880 5880
5868 5867 5867 5866 5866 5865 5865 5864 5864 5864 5864 5865 5865 5865 5866 5866 5866 5866 5867 5867 5867 5867 5868 5868 5868 5868 5868 5868 5868 5869 5869 5870 5870 5871 5872 5873 5873 5874 5874 5875 5876 5876 5877
5867 5866 5866 5865 5864 5864 5863 5863 5863 5863 5863 5863 5863 5863 5863 5863 5863 5864 5864 5864 5864 5864 5864 5864 5864 5864 5864 5864 5865 5865 5865 5865 5866 5867 5867 5868 5869 5870 5870 5871 5871 5872 5872
5866 5865 5864 5864 5863 5862 5862 5861 5861 5861 5860 5860 5860 5860 5860 5860 5860 5861 5861 5861 5861 5861 5860 5860 5860 5860 5860 5860 5860 5860 5861 5861 5861 5862 5863 5864 5864 5865 5866 5866 5866 5867 5868
5865 5864 5863 5862 5861 5860 5860 5859 5859 5858 5858 5857 5857 5857 5857 5858 5857 5857 5857 5857 5857 5857 5856 5856 5855 5855 5855 5855 5855 5855 5856 5856 5856 5857 5858 5859 5859 5860 5860 5861 5861 5862 5863
5863 5862 5861 5860 5859 5858 5857 5857 5856 5855 5855 5855 5854 5854 5854 5854 5854 5854 5853 5853 5852 5852 5852 5851 5851 5850 5850 5850 5850 5850 5851 5851 5851 5852 5852 5853 5854 5854 5855 5855 5856 5857 5857
5861 5860 5859 5858 5857 5856 5855 5854 5853 5852 5852 5851 5850 5850 5850 5850 5850 5850 5849 5848 5848 5847 5847 5846 5846 5845 5845 5844 5845 5845 5845 5845 5845 5846 5846 5847 5848 5848 5849 5849 5850 5850 5851
5859 5858 5856 5855 5854 5852 5851 5850 5850 5849 5848 5847 5846 5846 5845 5845 5845 5845 5845 5844 5843 5842 5841 5840 5839 5839 5839 5839 5838 5839 5839 5839 5839 5839 5840 5840 5841 5841 5842 5842 5843 5844 5845
5856 5854 5853 5851 5850 5849 5848 5847 5846 5845 5844 5843 5842 5841 5841 5840 5840 5840 5839 5839 5838 5836 5835 5835 5834 5833 5833 5832 5832 5832 5832 5832 5832 5832 5833 5833 5834 5834 5835 5835 5836 5837 5837
5852 5850 5849 5848 5846 5845 5844 5842 5841 5840 5839 5839 5838 5837 5836 5835 5834 5834 5833 5832 5831 5831 5830 5829 5828 5827 5826 5826 5825 5825 5825 5825 5825 5825 5825 5826 5826 5827 5827 5828 5829 5829 5830
5848 5847 5845 5843 5842 5841 5839 5838 5837 5836 5835 5834 5832 5831 5830 5829 5828 5827 5827 5826 5825 5824 5823 5822 5821 5820 5819 5819 5818 5818 5817 5817 5817 5817 5818 5818 5819 5819 5820 5821 5821 5822 5823
5844 5843 5841 5839 5838 5836 5835 5834 5832 5831 5830 5828 5827 5825 5824 5823 5821 5820 5820 5819 5818 5817 5816 5815 5814 5813 5812 5811 5811 5810 5810 5810 5810 5810 5810 5811 5811 5812 5812 5813 5814 5815 5816
5840 5838 5837 5835 5833 5832 5830 5829 5827 5826 5824 5823 5821 5820 5818 5817 5815 5814 5813 5812 5810 5810 5809 5809 5807 5806 5805 5804 5803 5803 5803 5803 5803 5803 5803 5803 5804 5804 5805 5805 5806 5807 5809
5835 5834 5832 5830 5829 5827 5826 5824 5822 5820 5819 5817 5815 5814 5812 5810 5808 5807 5806 5805 5804 5803 5802 5802 5800 5799 5798 5797 5796 5796 5795 5795 5795 5795 5795 5795 5796 5796 5797 5797 5798 5799 5800
5831 5829 5827 5826 5824 5822 5820 5819 5817 5815 5813 5811 5809 5807 5805 5804 5802 5800 5799 5798 5796 5796 5795 5794 5793 5791 5790 5789 5789 5788 5788 5788 5788 5787 5787 5787 5787 5787 5788 5788 5789 5790 5792
5826 5824 5822 5821 5819 5817 5815 5813 5811 5809 5807 5805 5803 5801 5799 5797 5795 5794 5792 5791 5789 5789 5788 5787 5785 5784 5783 5782 5781 5781 5780 5780 5779 5779 5779 5779 5778 5778 5778 5779 5780 5781 5783
5821 5819 5817 5815 5813 5811 5809 5807 5805 5803 5801 5799 5796 5794 5792 5790 5788 5787 5785 5784 5783 5781 5780 5779 5778 5776 5775 5774 5774 5773 5772 5772 5771 5771 5770 5770 5769 5769 5769 5770 5771 5772 5773
5816 5814 5812 5810 5808 5806 5804 5801 5799 5797 5795 5792 5790 5788 5785 5783 5781 5779 5778 5776 5775 5774 5773 5771 5770 5768 5767 5766 5766 5765 5764 5763 5763 5762 5762 5761 5761 5761 5761 5761 5761 5763 5764
5811 5809 5806 5804 5802 5800 5797 5795 5793 5790 5788 5785 5783 5781 5778 5776 5774 5772 5770 5769 5767 5766 5764 5763 5762 5761 5759 5758 5757 5757 5756 5756 5755 5755 5753 5753 5753 5752 5752 5752 5752 5753 5755
5805 5802 5800 5798 5796 5794 5791 5789 5786 5784 5781 5778 5776 5774 5771 5768 5766 5764 5763 5761 5760 5758 5756 5755 5754 5752 5751 5750 5749 5749 5748 5747 5747 5746 5745 5745 5744 5744 5744 5744 5744 5745 5746
5799 5796 5794 5791 5789 5787 5785 5782 5779 5776 5774 5771 5769 5766 5764 5761 5758 5757 5755 5754 5752 5750 5748 5747 5746 5744 5743 5742 5741 5740 5739 5739 5738 5737 5737 5737 5736 5736 5736 5736 5736 5737 5738
5792 5789 5787 5785 5783 5780 5778 5775 5772 5769 5767 5765 5762 5759 5756 5753 5751 5749 5747 5746 5744 5742 5740 5739 5737 5736 5734 5733 5733 5732 5731 5731 5730 5729 5729 5728 5729 5728 5728 5728 5729 5730 5730
5786 5783 5780 5778 5776 5774 5771 5769 5766 5763 5761 5758 5755 5752 5749 5746 5744 5741 5739 5738 5737 5735 5733 5731 5729 5728 5727 5725 5724 5724 5723 5722 5721 5722 5721 5720 5720 5721 5721 5722 5721 5722 5722